www.pogodaiklimat.ru
Время
(UTC), дата
00 8.12
03 8.12
06 8.12
09 8.12
12 8.12
15 8.12
18 8.12
21 8.12
00 9.12
03 9.12
06 9.12
09 9.12
12 9.12
15 9.12
18 9.12
21 9.12
00 10.12
03 10.12
06 10.12
09 10.12
12 10.12
15 10.12
18 10.12
21 10.12
00 11.12
03 11.12
06 11.12
09 11.12
12 11.12
15 11.12
18 11.12
21 11.12
00 12.12
03 12.12
06 12.12
09 12.12
12 12.12
15 12.12
18 12.12
21 12.12
00 13.12
03 13.12
06 13.12
09 13.12
12 13.12
15 13.12
18 13.12
21 13.12
00 14.12
03 14.12
06 14.12
09 14.12
12 14.12
15 14.12
18 14.12
Ветер
(напр.,м/с)
Видим. Явления Облачность Т
(С)
Тd
(С)
f
(%)
Тe
(С)
Тes
(С)
Комфортность P
(гПа)
Po
(гПа)
Тmin
(С)
Tmax
(С)
R
(мм)
R24
(мм)
S
(см)
З 4
{10}
50 км 8/0
[Ac trans Ci fib]
-16.7 -26.1 44 -25 -25 1016.0 1013.2 -17.1
СЗ 8-14
{18}
50 км 10/0
[Ci fib]
-14.5 -24.9 41 -25 -25 1017.1 1014.3
СЗ 10-14
{16}
50 км 10/0
[Ci fib]
-14.5 -25.6 38 -26 -26 1019.6 1016.8
З 4
{16}
29 км 10/0
[Ci fib]
-16.4 -26.8 40 -25 -25 1022.1 1019.2 -14.2
ЮЗ 3 24 км 10/0
[Ci fib]
-17.8 -27.2 44 -25 -25 1023.5 1020.6
ЮЗ 4 28 км 8/0
[Ci fib]
-18.1 -27.9 42 -27 -27 1024.1 1021.2
Ю 3 50 км туман местами ясно -21.0 -29.3 47 -29 -29 1024.2 1021.3
Ю 2 22 км туман местами 4/0
[Ci fib]
-23.0 -22.9 100 -29 -29 1024.4 1021.5 -23.1 11
Ю 2 1000 м туман местами ясно -23.7 -30.2 55 -30 -30 1025.4 1022.0 -25.0
Ю 2 50 км ясно -13.8 -28.1 29 -19 -17 1023.6 1020.4
штиль 0 50 км 9/0
[Ac trans Cc]
-11.9 -25.6 31 -12 -12 1023.1 1019.9
ЮЗ 2 50 км ясно -15.6 -21.3 62 -21 -21 1022.4 1019.6 -11.2
ЮЗ 2 50 км ясно -18.3 -26.6 48 -24 -24 1021.4 1018.5
ЮЗ 2 45 км 10/0
[Ci fib]
-19.3 -26.8 51 -25 -25 1019.6 1016.7
З 2 40 км 10/0
[Cs]
-20.6 -25.1 67 -27 -27 1018.1 1015.2
ЮЗ 2 40 км 10/0
[As trans Cs]
-18.9 -25.5 56 -25 -25 1016.2 1013.4 -20.7 11
ЮЗ 2 50 км 10/0
[Ac As Cs]
-15.9 -22.7 56 -21 -21 1015.0 1012.2
ЮЗ 2 20 км 10/0
[Ac As Cs]
-9.4 -16.9 54 -14 -12 1012.5 1009.8
ЮЗ 2 20 км 10/0
[Ac As Ci fib]
-6.9 -15.0 52 -11 -11 1010.9 1008.2
ЮЗ 2 50 км 8/0
[Ci fib]
-8.5 -13.4 68 -13 -13 1011.4 1008.3 -6.6
Ю 2 50 км ясно -10.5 -14.6 72 -15 -15 1012.1 1009.0
ЮЗ 2 50 км ясно -10.0 -15.1 66 -14 -14 1012.3 1009.2
ЮЗ 4 50 км 10/8 600 м
[Sc Ac As]
-8.7 -16.7 52 -15 -15 1013.7 1010.6
штиль 0 50 км 10/4 600 м
[Sc Ac trans Ci fib]
-10.9 -16.1 65 -11 -11 1014.6 1011.5 -11.5 11
ЮЗ 2 50 км 10/5 600 м
[Sc Ac und Ci]
-9.7 -17.3 54 -14 -14 1014.7 1011.9 -11.6
штиль 0 50 км 10/0
[Ac lent Cc]
-4.1 -17.6 34 -4 -3 1012.9 1010.2
В 2 50 км 10/0
[Ac As Cc]
-5.6 -15.5 46 -9 -9 1012.5 1009.8
З 2 45 км 10/0
[Ac trans Ci fib]
-8.5 -16.2 54 -13 -13 1012.8 1010.1 -3.2
З 2 45 км 10/0
[Ac As]
-10.4 -15.5 66 -15 -15 1012.0 1009.2
ЮЗ 2 40 км 10/0
[As trans]
-10.1 -16.0 62 -14 -14 1009.4 1006.7
С 2 2000 м ливневой снег 10/10 600 м
[Cb cap]
-9.0 -10.9 86 -14 -14 1006.5 1003.8
С 4 1000 м ливневой снег 10/10 300 м
[Cb cap]
-8.8 -10.4 88 -16 -16 1003.3 1000.6 -10.7 3 12
СЗ 8-14
{14}
1000 м ливневой снег {метель} 10/10 300 м
[Cb cap]
-9.1 -11.0 86 -19 -19 1000.3 997.6
С 8-18
{18}
4000 м 10/10 300 м
[Cb cap]
-8.6 -11.4 80 -18 -18 998.6 995.9
С 6-12
{16}
20 км в посл. час снег {ливн. осадки, метель} 10/10 300 м
[Cb cap]
-7.8 -13.3 65 -16 -16 998.5 995.8
СЗ 8-14
{16}
22 км 10/3 300 м
[Cb cap Ac As]
-9.6 -18.2 49 -19 -19 1002.1 999.4 -7.4 3
З 12-20
{20}
29 км ясно -12.2 -20.9 48 -24 -24 1005.5 1002.7
З 8-14
{18}
35 км 10/0
[Ac As Ci fib]
-13.3 -21.8 49 -24 -24 1008.6 1005.8
З 6-12
{14}
30 км 10/0
[Ci fib]
-12.9 -21.9 47 -22 -22 1010.8 1008.0
СЗ 3 35 км 10/0
[Ac As Ci fib]
-12.5 -22.0 45 -19 -19 1013.3 1010.5 -13.5 10
З 4 50 км 10/0
[Ac trans Cc]
-12.4 -21.4 47 -20 -19 1017.0 1013.8
штиль 0 50 км 10/0
[Cc]
-8.0 -21.7 32 -8 -6 1016.7 1013.5
С 2 50 км 10/3 600 м
[Sc Ac trans Ci fib]
-8.0 -18.3 43 -12 -12 1017.2 1014.1
штиль 0 30 км 10/0
[Ac trans Ci fib]
-10.3 -17.0 58 -10 -10 1017.7 1014.9 -7.3
штиль 0 40 км 10/0
[Ac trans Ci fib]
-14.2 -19.3 65 -14 -14 1017.7 1014.9
З 2 29 км 10/0
[Cs]
-15.1 -19.6 68 -20 -20 1017.1 1014.3
штиль 0 35 км 10/0
[Cs]
-14.4 -19.2 67 -14 -14 1016.0 1013.2
штиль 0 16 км {снег} 10/0
[Ac As Ci fib]
-15.5 -17.7 83 -16 -16 1015.3 1012.4 -15.7 0.0 10
ЮЗ 2 10 км слаб. снег 10/0
[As trans]
-13.6 -16.6 78 -18 -18 1016.3 1013.5 -15.8
ЮЗ 2 20 км {снег} 10/0
[As op Ci fib]
-7.8 -12.7 68 -12 -11 1015.2 1012.4
СЗ 4 50 км {снег} 6/0
[Ac trans Ci fib]
-6.5 -15.1 50 -13 -13 1015.4 1012.7
СЗ 2 50 км 1/0
[Ac trans]
-9.1 -16.8 54 -13 -13 1018.2 1015.1 -6.1 0.0
З 2 50 км 1/0
[Ac trans]
-12.4 -19.1 57 -17 -17 1019.7 1013.6
ЮЗ 2 50 км 6/0
[Ac trans Ci fib]
-12.0 -19.5 54 -17 -17 1020.4 1017.6
ЮЗ 2 50 км 6/0
[Ci fib]
-12.6 -20.6 51 -17 -17 1021.8 1019.0
Местоположение метеостанции Советская Гавань (Хабаровский край, Россия): широта 49.00 долгота 140.30 высота над уровнем моря 24 м.
В архиве по умолчанию представлена погода в Советской Гавани за последнюю неделю. Архивные данные за месяц целиком и за предыдущие месяцы, начиная с января 2011 года, Вы можете получить, выбрав интересующий диапазон дат из раскрывающегося списка и нажав кнопку "Найти!".
*Определитесь, кто Вы:
Внимание! Время в таблицах - всемирное. Для получения местного времени необходимо прибавить поправку, которая равна 10 ч.
Смотрите также архив погоды в соседних городах и на ближайших метеорологических станциях:
Партнеры нашего сайта:      
Пояснения к столбцам:
  • Ветер - указаны скорость ветра в м/с - средняя за 10 мин, порывы в срок и между сроками (в фигурных скобках) и направление, откуда дует ветер: С - северный,
  • СВ - северо-восточный, В - восточный, ЮВ - юго-восточный, Ю - южный, ЮЗ - юго-западный, З - западный, СЗ - северо-западный.
  • Видимость - горизонтальная дальность видимости в метрах или километрах. При видимости от 1 до 10 км при отсутствии осадков обычно наблюдается дымка, при ухудшении видимости до 1 км и менее - туман. В сухую погоду видимость может ухудшаться дымом, пылью или мглою.
  • Явления - указаны атмосферные явления, наблюдавшиеся в срок или в последний час перед сроком; фигурными скобками обозначены явления, наблюдавшиеся между сроками (за 1-3 часа до срока); квадратными скобками обозначены град или гололедные отложения с указанием их диаметра в мм.
  • Облачность - указаны через наклонную черту общая и нижняя облачность в баллах и высота нижней границы облаков в метрах; квадратными скобками обозначены формы облаков: Ci - перистые, Cs - перисто-слоистые, Cc - перисто-кучевые, Ac - высококучевые, As - высокослоистые, Sc - слоисто-кучевые, Ns - слоисто-дождевые, Cu - кучевые, Cb - кучево-дождевые. Подробнее классификацию облаков см. в Атласе облаков (PDF).
  • T - Температура воздуха - температура, измеренная на высоте 2 м над землей.
  • Td - Температура точки росы - температура, при понижении до которой содержащийся в воздухе водяной пар достигнет насыщения.
  • f - Относительная влажность воздуха - влажноcть воздуха, измеренная на высоте 2 м над землей.
  • Te - Эффективная температура - температура, которую ощущает одетый по сезону человек в тени. Характеристика душности погоды. При расчете учитывается влияние влажности воздуха и скорости ветра на теплоощущения человека.
  • Tes - Эффективная температура на солнце - температура, которую ощущает человек, с поправкой на солнечный нагрев. Характеристика знойности погоды. Зависит от высоты солнца над горизонтом, облачности и скорости ветра. Ночью, в пасмурную погоду, а также при ветре 12 м/с и более поправка равна нулю.
  • P - Атмосферное давление - приведенное к уровню моря атмосферное давление.
  • Po - Атмосферное давление - измеренное на уровне метеостанции атмосферное давление.
  • Tmin - Минимальная температура - минимум температуры воздуха на высоте 2 м над землей.
  • Tmax - Максимальная температура - максимум температуры воздуха на высоте 2 м над землей.
  • R - Количество осадков - Количество выпавших осадков за период времени, мм. При наведении курсора мыши на число - период времени, за который выпало указанное количество осадков.
  • R24 - Количество осадков - Количество выпавших осадков за 24 часа, мм.
  • S - Снежный покров - Высота снежного покрова, см. При наведении курсора мыши на число - состояние снежного покрова и степень покрытия местности в баллах.